Flag for U.S.A. Weather past 2 weeks in Wake Island, Wake Island, U.S.A.

Now
82 °F

Broken clouds.


Feels Like: 84 °F
Forecast: 74 / 79 °F
Wind: 24 mph from East

Location: Wake Island Airfld

Current Time: Feb 28, 2015 at 2:57:46 PM

Latest Report: Feb 28, 2015 at 1:58 PM


Visibility: 6 mi

Pressure: 29.98 "Hg

Humidity: 60%

Dew point: 66 °F

Location of Wake IslandLocation

Historic Weather in Wake Island — Graph

°F

Wake Island temperature yesterday

Maximum temperature yesterday: 80 °F (at 10:58 AM)
Minimum temperature yesterday: 73 °F (at 4:58 AM)
Average temperature yesterday: 76 °F

Past Weeks' High & Low Weather Summary

 TemperatureHumidityPressure
High83 °F (Feb 13, 2:58 PM)100% (Feb 15, 9:04 AM)30.11 "Hg (Feb 15, 9:04 AM)
Low71 °F (Feb 24, 4:58 AM)44% (Feb 23, 1:58 PM)29.72 "Hg (Feb 16, 3:58 PM)
Average76 °F69%29.90 "Hg
* Reported Feb 13 1:58 PM — Feb 28 1:58 PM, Wake Island, Weather by CustomWeather, © 2015

Note: Actual official high and low records may vary slightly from our data, if they occured in-between our weather recording intervals... More about our weather records

Advertising

Wake Island weather history for previous 24 hours

 ConditionsComfort  
Time TempWeatherWind HumidityBarometerVisibility
1:58 PM
Sat, Feb 28
82 °FBroken clouds.24 mph60%29.98 "Hg6 mi
12:58 PM80 °FScattered clouds.20 mph62%30.01 "HgN/A
11:58 AM80 °FMore clouds than sun.26 mph63%30.03 "HgN/A
10:58 AM79 °FBroken clouds.28 mph64%30.06 "HgN/A
9:58 AM79 °FHaze.21 mph65%30.05 "Hg6 mi
8:58 AM76 °FHaze.25 mph69%30.04 "Hg6 mi
7:58 AM75 °FPassing clouds.22 mph70%30.03 "HgN/A
6:58 AM74 °FPassing clouds.21 mph70%30.02 "HgN/A
5:58 AM75 °FPassing clouds.23 mph72%30.00 "HgN/A
4:58 AM75 °FPassing clouds.24 mph73%29.99 "HgN/A
4:03 AM73 °FPartly cloudy.25 mph78%29.97 "HgN/A
3:58 AM74 °FPassing clouds.23 mph76%29.99 "HgN/A
2:58 AM74 °FClear.23 mph74%30.00 "HgN/A
2:04 AM72 °FLight rain. Partly cloudy.13 mph83%30.00 "Hg3 mi
1:59 AM72 °FRain. Passing clouds.17 mph83%30.00 "Hg4 mi
12:58 AM74 °FPassing clouds.22 mph73%30.04 "HgN/A
11:58 PM
Fri, Feb 27
75 °FPassing clouds.23 mph72%30.04 "HgN/A
10:58 PM75 °FPassing clouds.30 mph71%30.04 "HgN/A
9:58 PM74 °FPassing clouds.26 mph75%30.04 "HgN/A
8:58 PM75 °FClear.25 mph73%30.04 "Hg4 mi
7:58 PM76 °FPassing clouds.25 mph70%30.02 "Hg4 mi
6:58 PM76 °FHaze.22 mph72%30.01 "Hg3 mi
5:58 PM77 °FPartly sunny.24 mph66%30.00 "Hg2 mi
5:48 PM77 °FScattered clouds.23 mph69%29.98 "Hg2 mi
4:58 PM79 °FHaze.24 mph63%29.99 "Hg4 mi
3:58 PM80 °FScattered clouds.22 mph60%29.98 "Hg4 mi
2:58 PM80 °FScattered clouds.24 mph59%29.99 "Hg5 mi
Weather by CustomWeather, © 2015

See weather overviewHow to use our weather pages